EW9763 Weather Reports


Display with metric or nautical units.
time (UTC)temp
F
wind
direction
speed
MPH
gust
MPH
rain 1hr
in
rain 24hr
in
rain mn
in
humidity
%
barometer
mb
20260502194826 56 221 3.0 7.0 0.00 0.00 0.00 43 1015.0
20260502194327 56 138 3.0 7.0 0.00 0.00 0.00 45 1015.1
20260502194056 56 351 3.0 7.0 0.00 0.00 0.00 40 1015.3
20260502193323 55 223 4.0 10.0 0.00 0.00 0.00 42 1015.4
20260502192822 55 198 4.0 10.0 0.00 0.00 0.00 45 1015.5
20260502192320 55 170 4.0 8.0 0.00 0.00 0.00 47 1015.5
20260502191819 54 138 6.0 12.0 0.00 0.00 0.00 43 1015.7
20260502191550 54 193 6.0 13.0 0.00 0.00 0.00 42 1015.6
20260502190821 55 213 5.0 13.0 0.00 0.00 0.00 44 1015.7
20260502190320 55 182 4.0 8.0 0.00 0.00 0.00 44 1015.7
20260502185820 55 263 5.0 12.0 0.00 0.00 0.00 42 1015.8
20260502185320 56 242 6.0 13.0 0.00 0.00 0.00 41 1015.8
20260502184815 55 302 6.0 14.0 0.00 0.00 0.00 38 1015.9
20260502184317 55 279 8.0 15.0 0.00 0.00 0.00 40 1016.0
20260502183815 55 287 9.0 18.0 0.00 0.00 0.00 40 1016.0
20260502183316 56 320 7.0 18.0 0.00 0.00 0.00 43 1016.1
20260502182815 54 308 5.0 11.0 0.00 0.00 0.00 43 1016.1
20260502182315 54 325 5.0 10.0 0.00 0.00 0.00 39 1016.2
20260502181816 54 335 6.0 14.0 0.00 0.00 0.00 41 1016.3
20260502181313 54 302 8.0 16.0 0.00 0.00 0.00 42 1016.4
20260502180813 54 302 9.0 18.0 0.00 0.00 0.00 40 1016.4
20260502180314 55 304 8.0 18.0 0.00 0.00 0.00 43 1016.5
20260502170301 53 263 3.0 10.0 0.00 0.00 0.00 45 1017.2
20260502164300 51 184 4.0 10.0 0.00 0.00 0.00 45 1017.4
20260502163755 51 278 3.0 8.0 0.00 0.00 0.00 45 1017.5
20260502163255 51 252 3.0 8.0 0.00 0.00 0.00 46 1017.5
20260502163026 51 292 5.0 12.0 0.00 0.00 0.00 46 1017.6
20260502162526 50 265 6.0 12.0 0.00 0.00 0.00 46 1017.7
20260502161755 51 305 4.0 10.0 0.00 0.00 0.00 46 1017.7
20260502161257 51 194 3.0 8.0 0.00 0.00 0.00 48 1017.8
20260502160757 50 214 5.0 11.0 0.00 0.00 0.00 48 1017.9
20260502160255 50 298 6.0 11.0 0.00 0.00 0.00 47 1018.0
20260502151739 47 284 2.0 5.0 0.00 0.00 0.00 50 1018.2
20260502151241 47 311 2.0 4.0 0.00 0.00 0.00 50 1018.2
20260502150738 47 144 3.0 6.0 0.00 0.00 0.00 54 1018.2
20260502150239 47 31 3.0 7.0 0.00 0.00 0.00 56 1018.3
20260502130716 39 343 2.0 4.0 0.00 0.00 0.00 76 1019.1
20260502130221 39 306 1.0 3.0 0.00 0.00 0.00 79 1019.1
20260502123208 36 312 2.0 3.0 0.00 0.00 0.00 88 1019.1
20260502122708 36 332 1.0 3.0 0.00 0.00 0.00 90 1019.1
20260502122432 36 333 1.0 3.0 0.00 0.00 0.00 91 1019.0
20260502121701 36 181 0.0 1.0 0.00 0.00 0.00 92 1019.0
20260502121201 36 179 0.0 1.0 0.00 0.00 0.00 93 1019.0
20260502120659 36 179 0.0 1.0 0.00 0.00 0.00 93 1019.0
20260502120429 35 180 0.0 0.0 0.00 0.00 0.00 94 1019.0
20260502115659 35 179 0.0 0.0 0.00 0.00 0.00 94 1019.0
20260502115157 34 180 0.0 1.0 0.00 0.00 0.00 94 1019.0
20260502114656 33 180 0.0 2.0 0.00 0.00 0.00 94 1018.9
20260502114156 32 180 1.0 3.0 0.00 0.00 0.00 94 1018.9
20260502113653 32 180 1.0 3.0 0.00 0.00 0.00 94 1018.9
20260502113155 31 167 0.0 3.0 0.00 0.00 0.00 94 1018.9
20260502112653 31 167 1.0 3.0 0.00 0.00 0.00 94 1018.9
20260502112154 31 169 1.0 2.0 0.00 0.00 0.00 94 1018.9
20260502111652 31 169 1.0 2.0 0.00 0.00 0.00 93 1018.9
20260502111149 31 172 1.0 2.0 0.00 0.00 0.00 93 1018.8
20260502110921 31 180 1.0 2.0 0.00 0.00 0.00 94 1018.7
20260502110149 31 180 1.0 2.0 0.00 0.00 0.00 94 1018.7
20260502105646 30 180 0.0 2.0 0.00 0.00 0.00 93 1018.7
20260502105147 30 180 0.0 1.0 0.00 0.00 0.00 93 1018.7
20260502104643 30 180 0.0 1.0 0.00 0.00 0.00 93 1018.7
20260502104149 31 181 0.0 2.0 0.00 0.00 0.00 93 1018.6
20260502104143 30 181 0.0 0.0 0.00 0.00 0.00 93 1018.7
20260502103414 31 180 1.0 2.0 0.00 0.00 0.00 93 1018.6
20260502102640 31 180 0.0 2.0 0.00 0.00 0.00 93 1018.6
20260502102141 31 207 0.0 0.0 0.00 0.00 0.00 93 1018.6
20260502101909 31 209 0.0 0.0 0.00 0.00 0.00 93 1018.6
20260502101136 31 209 0.0 0.0 0.00 0.00 0.00 93 1018.6
20260502100636 31 209 0.0 0.0 0.00 0.00 0.00 93 1018.5
20260502100408 31 210 0.0 0.0 0.00 0.00 0.00 93 1018.5
20260502091113 31 194 0.0 1.0 0.00 0.00 0.00 92 1018.4
20260502090610 31 194 0.0 0.0 0.00 0.00 0.00 92 1018.5
20260502090111 31 194 0.0 0.0 0.00 0.00 0.00 92 1018.4
20260502071040 33 188 0.0 0.0 0.00 0.00 0.00 90 1018.4
20260502070814 33 188 0.0 0.0 0.00 0.00 0.00 90 1018.4
20260502070038 33 188 0.0 0.0 0.00 0.00 0.00 90 1018.4
20260502065537 33 188 0.0 1.0 0.00 0.00 0.00 90 1018.5
20260502065038 33 188 0.0 1.0 0.00 0.00 0.00 90 1018.5
20260502064537 33 188 0.0 0.0 0.00 0.00 0.00 89 1018.5
20260502064034 33 188 0.0 1.0 0.00 0.00 0.00 89 1018.5
20260502063534 34 188 0.0 2.0 0.00 0.00 0.00 89 1018.5
20260502063035 34 188 0.0 2.0 0.00 0.00 0.00 89 1018.5
20260502062532 34 188 0.0 2.0 0.00 0.00 0.00 89 1018.5
20260502062033 34 188 1.0 3.0 0.00 0.00 0.00 89 1018.5
20260502061802 34 188 2.0 3.0 0.00 0.00 0.00 88 1018.5
20260502061028 34 188 2.0 4.0 0.00 0.00 0.00 88 1018.5
20260502060531 34 188 2.0 4.0 0.00 0.00 0.00 88 1018.5
20260502060525 34 190 2.0 4.0 0.00 0.00 0.00 88 1018.5
20260502055522 34 189 2.0 3.0 0.00 0.00 0.00 88 1018.5
20260502055023 34 189 2.0 3.0 0.00 0.00 0.00 88 1018.5
20260502054523 34 190 2.0 4.0 0.00 0.00 0.00 87 1018.5
20260502054022 34 189 3.0 4.0 0.00 0.00 0.00 87 1018.6
20260502053524 34 189 2.0 4.0 0.00 0.00 0.00 87 1018.5
20260502053019 35 182 1.0 3.0 0.00 0.00 0.00 87 1018.5
20260502052750 35 182 0.0 0.0 0.00 0.00 0.00 87 1018.5
20260502052016 35 179 0.0 0.0 0.00 0.00 0.00 86 1018.6
20260502051516 35 179 0.0 0.0 0.00 0.00 0.00 86 1018.5
20260502051016 35 179 0.0 0.0 0.00 0.00 0.00 86 1018.5
20260502050517 35 179 0.0 0.0 0.00 0.00 0.00 85 1018.5
20260502050010 35 179 0.0 3.0 0.00 0.00 0.00 84 1018.5
20260502045510 35 179 1.0 3.0 0.00 0.00 0.00 84 1018.5
20260502045007 35 179 0.0 2.0 0.00 0.00 0.00 84 1018.5
20260502044504 35 177 0.0 2.0 0.00 0.00 0.00 83 1018.5
20260502044005 35 177 1.0 3.0 0.00 0.00 0.00 83 1018.5
20260502043734 35 177 1.0 3.0 0.00 0.00 0.00 83 1018.5
20260502043002 35 177 1.0 3.0 0.00 0.00 0.00 83 1018.5
20260502042732 35 177 1.0 4.0 0.00 0.00 0.00 83 1018.5
20260502042003 36 177 1.0 4.0 0.00 0.00 0.00 82 1018.5
20260502041459 36 207 0.0 2.0 0.00 0.00 0.00 82 1018.5
20260502041001 36 208 0.0 0.0 0.00 0.00 0.00 82 1018.5
20260502040500 36 208 0.0 2.0 0.00 0.00 0.00 82 1018.5
20260502035957 36 208 1.0 3.0 0.00 0.00 0.00 82 1018.5
20260502035456 36 208 1.0 3.0 0.00 0.00 0.00 82 1018.5
20260502034956 36 207 1.0 3.0 0.00 0.00 0.00 82 1018.5
20260502034455 36 207 1.0 3.0 0.00 0.00 0.00 81 1018.5
20260502033956 36 268 1.0 3.0 0.00 0.00 0.00 81 1018.6
20260502033456 36 275 0.0 3.0 0.00 0.00 0.00 80 1018.6
20260502032953 36 333 0.0 1.0 0.00 0.00 0.00 80 1018.6
20260502032452 37 333 0.0 1.0 0.00 0.00 0.00 79 1018.7
20260502031952 37 333 0.0 0.0 0.00 0.00 0.00 79 1018.7
20260502031452 37 333 0.0 1.0 0.00 0.00 0.00 79 1018.7
20260502030954 38 333 0.0 1.0 0.00 0.00 0.00 79 1018.8
20260502030458 38 333 0.0 0.0 0.00 0.00 0.00 78 1018.8
20260502025951 38 333 0.0 1.0 0.00 0.00 0.00 78 1018.7
20260502025452 38 333 0.0 1.0 0.00 0.00 0.00 77 1018.7
20260502024952 39 333 0.0 1.0 0.00 0.00 0.00 77 1018.7
20260502024452 39 333 0.0 1.0 0.00 0.00 0.00 76 1018.7
20260502023952 39 333 0.0 0.0 0.00 0.00 0.00 75 1018.7
20260502023449 39 342 0.0 0.0 0.00 0.00 0.00 73 1018.7
20260502022948 39 350 0.0 0.0 0.00 0.00 0.00 73 1018.7
20260502022450 39 350 0.0 1.0 0.00 0.00 0.00 73 1018.6
20260502021948 39 350 0.0 1.0 0.00 0.00 0.00 73 1018.7
20260502021449 39 350 0.0 0.0 0.00 0.00 0.00 72 1018.7
20260502020947 40 350 0.0 0.0 0.00 0.00 0.00 72 1018.6
20260502020717 40 350 0.0 0.0 0.00 0.00 0.00 69 1018.6
20260502015944 40 350 0.0 2.0 0.00 0.00 0.00 67 1018.5
20260502015445 40 350 0.0 2.0 0.00 0.00 0.00 66 1018.5
20260502014944 40 350 0.0 1.0 0.00 0.00 0.00 65 1018.5
20260502014443 41 350 0.0 0.0 0.00 0.00 0.00 64 1018.4
20260502013938 41 350 1.0 3.0 0.00 0.00 0.00 64 1018.3
20260502013707 41 350 1.0 3.0 0.00 0.00 0.00 64 1018.4
20260502012933 41 350 0.0 3.0 0.00 0.00 0.00 63 1018.3
20260502012702 42 350 1.0 3.0 0.00 0.00 0.00 63 1018.2
20260502011930 42 350 1.0 3.0 0.00 0.00 0.00 64 1018.2
20260502011659 42 344 1.0 2.0 0.00 0.00 0.00 64 1018.2
20260502010925 42 344 1.0 2.0 0.00 0.00 0.00 64 1018.3
20260502010423 42 341 0.0 2.0 0.00 0.00 0.00 63 1018.2
20260502005923 42 339 1.0 3.0 0.00 0.00 0.00 63 1018.2
20260502005421 42 337 2.0 4.0 0.00 0.00 0.00 62 1018.2
20260502004922 42 336 3.0 4.0 0.00 0.00 0.00 62 1018.2
20260502004420 43 334 3.0 4.0 0.00 0.00 0.00 61 1018.2
20260502003917 42 334 2.0 4.0 0.00 0.00 0.00 62 1018.2
20260502003414 42 330 2.0 4.0 0.00 0.00 0.00 63 1018.2
20260502003145 42 333 2.0 5.0 0.00 0.00 0.00 63 1018.2
20260502002414 42 333 3.0 5.0 0.00 0.00 0.00 62 1018.1
20260502001914 42 15 3.0 5.0 0.00 0.00 0.00 62 1018.1
20260502001409 42 332 3.0 8.0 0.00 0.00 0.00 62 1018.1
20260502000910 42 355 3.0 8.0 0.00 0.00 0.00 62 1018.0
20260502000411 42 0 3.0 7.0 0.00 0.00 0.00 62 1018.0
20260501235909 42 25 3.0 6.0 0.00 0.00 0.00 62 1018.0
20260501235412 42 348 4.0 9.0 0.00 0.00 0.00 61 1018.0
20260501234909 43 0 4.0 9.0 0.00 0.00 0.00 62 1018.0
20260501234410 43 335 4.0 9.0 0.00 0.00 0.00 60 1018.0
20260501233905 43 0 6.0 13.0 0.00 0.00 0.00 60 1018.0
20260501233405 43 350 5.0 13.0 0.00 0.00 0.00 61 1018.0
20260501232904 43 321 3.0 10.0 0.00 0.00 0.00 61 1017.9
20260501232403 43 5 4.0 10.0 0.00 0.00 0.00 60 1017.9
20260501231901 43 348 5.0 10.0 0.00 0.00 0.00 59 1017.9
20260501231406 43 324 7.0 12.0 0.00 0.00 0.00 60 1017.9
20260501231402 43 355 5.0 10.0 0.00 0.00 0.00 59 1017.9
20260501230359 43 344 9.0 14.0 0.00 0.00 0.00 59 1017.8
20260501225859 43 324 9.0 14.0 0.00 0.00 0.00 59 1017.8
20260501225359 43 329 9.0 13.0 0.00 0.00 0.00 58 1017.7
20260501224859 44 322 9.0 14.0 0.00 0.00 0.00 57 1017.8
20260501224400 44 328 8.0 14.0 0.00 0.00 0.00 59 1017.7
20260501223901 44 318 5.0 11.0 0.00 0.00 0.00 57 1017.8
20260501223626 44 350 4.0 9.0 0.00 0.00 0.00 58 1017.8
20260501222853 44 13 4.0 9.0 0.00 0.00 0.00 60 1017.8
20260501222626 43 340 5.0 13.0 0.00 0.00 0.00 60 1017.8
20260501221859 43 318 8.0 12.0 0.00 0.00 0.00 59 1017.7
20260501221853 43 330 7.0 13.0 0.00 0.00 0.00 59 1017.8
20260501221512 43 325 8.0 12.0 0.00 0.00 0.00 61 1017.7
20260501220619 43 327 8.0 13.0 0.00 0.00 0.00 60 1017.7
20260501220119 43 323 7.0 13.0 0.00 0.00 0.00 59 1017.6
20260501215347 43 341 7.0 13.0 0.00 0.00 0.00 61 1017.6
20260501215123 43 329 8.0 13.0 0.00 0.00 0.00 60 1017.5
20260501214348 43 322 8.0 13.0 0.00 0.00 0.00 61 1017.5
20260501213848 43 334 8.0 13.0 0.00 0.00 0.00 60 1017.5
20260501213614 43 315 9.0 14.0 0.00 0.00 0.00 61 1017.5
20260501212843 43 323 9.0 14.0 0.00 0.00 0.00 60 1017.5
20260501212342 43 305 10.0 15.0 0.00 0.00 0.00 59 1017.5
20260501211842 43 304 9.0 16.0 0.00 0.00 0.00 59 1017.5
20260501211341 43 317 9.0 16.0 0.00 0.00 0.00 59 1017.5
20260501210842 44 342 7.0 14.0 0.00 0.00 0.00 60 1017.4
20260501210339 44 313 7.0 11.0 0.00 0.00 0.00 54 1017.3
20260501205837 44 313 9.0 14.0 0.00 0.00 0.00 53 1017.3
20260501205336 44 315 8.0 14.0 0.00 0.00 0.00 54 1017.2
20260501205105 44 315 6.0 11.0 0.00 0.00 0.00 54 1017.3
20260501204335 44 314 5.0 9.0 0.00 0.00 0.00 53 1017.3
20260501204106 44 333 4.0 8.0 0.00 0.00 0.00 54 1017.3
20260501203333 44 319 4.0 9.0 0.00 0.00 0.00 53 1017.3
20260501202835 44 291 6.0 10.0 0.00 0.00 0.00 54 1017.3
20260501202333 44 315 6.0 10.0 0.00 0.00 0.00 54 1017.3
20260501201834 44 312 4.0 10.0 0.00 0.00 0.00 53 1017.3
20260501201335 44 311 4.0 8.0 0.00 0.00 0.00 52 1017.3
20260501200833 44 321 3.0 8.0 0.00 0.00 0.00 53 1017.3
20260501200334 44 309 3.0 9.0 0.00 0.00 0.00 54 1017.3
20260501195830 44 271 3.0 9.0 0.00 0.00 0.00 52 1017.3
20260501195329 44 309 3.0 8.0 0.00 0.00 0.00 52 1017.3